Location: Dackenheim
(49.5215°N, 8.1854°E)
Time: 02:33:19
(UTC+00:00)

UWE-3 - Pass Details

Date: 14 March 2026
Orbit: 543 x 612 km, 97.9° (Epoch: 12 April)

Event Time Altitude Azimuth Distance (km) Brightness Sun altitude
Rises 02:20:35 0° 14° (NNE) 2,892 ? -31.6°
Reaches altitude 10° 02:22:47 10° 15° (NNE) 1,979 ? -31.3°
Enters shadow 02:24:53 28° 18° (NNE) 1,155 ? -31.0°
